owner,sensor,date,latitude,longitude,vertical_datum,wind_speed,wind_to_direction,wind_speed_of_gust,qcFlag 
TCOON,ioos:station:TCOON:518:1,2013-03-01T00:00:00Z,29.5150,-94.5133,0.0,5.1,350.0,,'1111122,1111122,1111122' 
TCOON,ioos:station:TCOON:518:1,2013-03-01T01:00:00Z,29.5150,-94.5133,0.0,3.4,327.0,3.9,'11111222,11111222,11111222' 
TCOON,ioos:station:TCOON:518:1,2013-03-01T02:00:00Z,29.5150,-94.5133,0.0,2.3,287.0,3.4,'11111222,11111222,11111222' 
TCOON,ioos:station:TCOON:518:1,2013-03-01T03:00:00Z,29.5150,-94.5133,0.0,4.9,303.0,5.6,'11111222,11111222,11111222' 
TCOON,ioos:station:TCOON:518:1,2013-03-01T04:00:00Z,29.5150,-94.5133,0.0,6.1,321.0,7.3,'11111222,11111222,11111222' 
TCOON,ioos:station:TCOON:518:1,2013-03-01T05:00:00Z,29.5150,-94.5133,0.0,5.4,321.0,6.3,'11111222,11111222,11111222' 
TCOON,ioos:station:TCOON:518:1,2013-03-01T06:00:00Z,29.5150,-94.5133,0.0,4.6,312.0,5.6,'11111222,11111222,11111222' 
TCOON,ioos:station:TCOON:518:1,2013-03-01T07:00:00Z,29.5150,-94.5133,0.0,5.1,314.0,6.1,'11111222,11111222,11111222' 
TCOON,ioos:station:TCOON:518:1,2013-03-01T08:00:00Z,29.5150,-94.5133,0.0,4.2,304.0,5.2,'11111222,11111222,11111222' 
TCOON,ioos:station:TCOON:518:1,2013-03-01T09:00:00Z,29.5150,-94.5133,0.0,3.1,280.0,,'1111122,1111122,1111122' 
TCOON,ioos:station:TCOON:518:1,2013-03-01T10:00:00Z,29.5150,-94.5133,0.0,5.1,310.0,,'1111122,1111122,1111122' 
TCOON,ioos:station:TCOON:518:1,2013-03-01T11:00:00Z,29.5150,-94.5133,0.0,7.1,330.0,8.4,'11111222,11111222,11111222' 
TCOON,ioos:station:TCOON:518:1,2013-03-01T12:00:00Z,29.5150,-94.5133,0.0,6.6,330.0,8.2,'11111222,11111222,11111222' 
TCOON,ioos:station:TCOON:518:1,2013-03-01T13:00:00Z,29.5150,-94.5133,0.0,6.3,333.0,7.7,'11111222,11111222,11111222' 
TCOON,ioos:station:TCOON:518:1,2013-03-01T14:00:00Z,29.5150,-94.5133,0.0,6.2,334.0,7.9,'11111222,11111222,11111222' 
TCOON,ioos:station:TCOON:518:1,2013-03-01T15:00:00Z,29.5150,-94.5133,0.0,4.6,326.0,5.5,'11111222,11111222,11111222' 
TCOON,ioos:station:TCOON:518:1,2013-03-01T16:00:00Z,29.5150,-94.5133,0.0,6.5,335.0,7.5,'11111222,11111222,11111222' 
TCOON,ioos:station:TCOON:518:1,2013-03-01T17:00:00Z,29.5150,-94.5133,0.0,6.7,323.0,7.5,'11111222,11111222,11111222' 
TCOON,ioos:station:TCOON:518:1,2013-03-01T18:00:00Z,29.5150,-94.5133,0.0,7.0,299.0,8.5,'11111222,11111222,11111222' 
TCOON,ioos:station:TCOON:518:1,2013-03-01T19:00:00Z,29.5150,-94.5133,0.0,5.8,301.0,7.9,'11111222,11111222,11111222' 
TCOON,ioos:station:TCOON:518:1,2013-03-01T20:00:00Z,29.5150,-94.5133,0.0,6.1,297.0,7.2,'11111222,11111222,11111222' 
TCOON,ioos:station:TCOON:518:1,2013-03-01T21:00:00Z,29.5150,-94.5133,0.0,5.2,300.0,7.3,'11111222,11111222,11111222' 
TCOON,ioos:station:TCOON:518:1,2013-03-01T22:00:00Z,29.5150,-94.5133,0.0,6.6,292.0,7.8,'11111222,11111222,11111222' 
TCOON,ioos:station:TCOON:518:1,2013-03-01T23:00:00Z,29.5150,-94.5133,0.0,6.3,308.0,7.8,'11111222,11111222,11111222' 
TCOON,ioos:station:TCOON:518:1,2013-03-02T00:00:00Z,29.5150,-94.5133,0.0,6.1,329.0,6.8,'11111222,11111222,11111222' 
TCOON,ioos:station:TCOON:518:1,2013-03-02T01:00:00Z,29.5150,-94.5133,0.0,4.0,11.0,4.9,'11111222,11111222,11111222' 
TCOON,ioos:station:TCOON:518:1,2013-03-02T02:00:00Z,29.5150,-94.5133,0.0,4.5,8.0,5.1,'11111222,11111222,11111222' 
TCOON,ioos:station:TCOON:518:1,2013-03-02T03:00:00Z,29.5150,-94.5133,0.0,7.9,349.0,9.3,'11111222,11111222,11111222' 
TCOON,ioos:station:TCOON:518:1,2013-03-02T04:00:00Z,29.5150,-94.5133,0.0,3.3,344.0,4.0,'11111222,11111222,11111222' 
TCOON,ioos:station:TCOON:518:1,2013-03-02T05:00:00Z,29.5150,-94.5133,0.0,2.2,325.0,2.5,'11111222,11111222,11111222' 
TCOON,ioos:station:TCOON:518:1,2013-03-02T06:00:00Z,29.5150,-94.5133,0.0,3.5,322.0,4.1,'11111222,11111222,11111222' 
TCOON,ioos:station:TCOON:518:1,2013-03-02T07:00:00Z,29.5150,-94.5133,0.0,4.8,341.0,5.5,'11111222,11111222,11111222' 
TCOON,ioos:station:TCOON:518:1,2013-03-02T08:00:00Z,29.5150,-94.5133,0.0,4.7,352.0,5.1,'11111222,11111222,11111222' 
TCOON,ioos:station:TCOON:518:1,2013-03-02T09:00:00Z,29.5150,-94.5133,0.0,3.4,4.0,4.1,'11111222,11111222,11111222' 
TCOON,ioos:station:TCOON:518:1,2013-03-02T10:00:00Z,29.5150,-94.5133,0.0,7.2,332.0,7.9,'11111222,11111222,11111222' 
TCOON,ioos:station:TCOON:518:1,2013-03-02T11:00:00Z,29.5150,-94.5133,0.0,8.0,340.0,9.4,'11111222,11111222,11111222' 
TCOON,ioos:station:TCOON:518:1,2013-03-02T12:00:00Z,29.5150,-94.5133,0.0,6.3,340.0,7.3,'11111222,11111222,11111222' 
TCOON,ioos:station:TCOON:518:1,2013-03-02T13:00:00Z,29.5150,-94.5133,0.0,8.5,343.0,9.9,'11111222,11111222,11111222' 
TCOON,ioos:station:TCOON:518:1,2013-03-02T14:00:00Z,29.5150,-94.5133,0.0,7.7,350.0,,'1111122,1111122,1111122' 
TCOON,ioos:station:TCOON:518:1,2013-03-02T15:00:00Z,29.5150,-94.5133,0.0,9.3,360.0,,'1111122,1111122,1111122' 
TCOON,ioos:station:TCOON:518:1,2013-03-02T16:00:00Z,29.5150,-94.5133,0.0,8.2,350.0,,'1111122,1111122,1111122' 
TCOON,ioos:station:TCOON:518:1,2013-03-02T17:00:00Z,29.5150,-94.5133,0.0,5.7,320.0,,'1111122,1111122,1111122' 
TCOON,ioos:station:TCOON:518:1,2013-03-02T18:00:00Z,29.5150,-94.5133,0.0,9.3,310.0,,'1111122,1111122,1111122' 
TCOON,ioos:station:TCOON:518:1,2013-03-02T19:00:00Z,29.5150,-94.5133,0.0,9.8,310.0,,'1111122,1111122,1111122' 
TCOON,ioos:station:TCOON:518:1,2013-03-02T20:00:00Z,29.5150,-94.5133,0.0,9.8,310.0,,'1111122,1111122,1111122' 
TCOON,ioos:station:TCOON:518:1,2013-03-02T21:00:00Z,29.5150,-94.5133,0.0,10.3,320.0,,'1111122,1111122,1111122' 
TCOON,ioos:station:TCOON:518:1,2013-03-02T22:00:00Z,29.5150,-94.5133,0.0,9.8,330.0,,'1111122,1111122,1111122' 
TCOON,ioos:station:TCOON:518:1,2013-03-02T23:00:00Z,29.5150,-94.5133,0.0,9.3,340.0,,'1111122,1111122,1111122' 
TCOON,ioos:station:TCOON:518:1,2013-03-03T00:00:00Z,29.5150,-94.5133,0.0,7.2,340.0,,'1111122,1111122,1111122' 
TCOON,ioos:station:TCOON:518:1,2013-03-03T01:00:00Z,29.5150,-94.5133,0.0,5.7,340.0,,'1111122,1111122,1111122' 
TCOON,ioos:station:TCOON:518:1,2013-03-03T02:00:00Z,29.5150,-94.5133,0.0,5.7,350.0,,'1111122,1111122,1111122' 
TCOON,ioos:station:TCOON:518:1,2013-03-03T03:00:00Z,29.5150,-94.5133,0.0,4.1,340.0,,'1111122,1111122,1111122' 
TCOON,ioos:station:TCOON:518:1,2013-03-03T04:00:00Z,29.5150,-94.5133,0.0,5.7,340.0,,'1111122,1111122,1111122' 
TCOON,ioos:station:TCOON:518:1,2013-03-03T05:00:00Z,29.5150,-94.5133,0.0,4.1,340.0,,'1111122,1111122,1111122' 
TCOON,ioos:station:TCOON:518:1,2013-03-03T06:00:00Z,29.5150,-94.5133,0.0,4.6,340.0,,'1111122,1111122,1111122' 
TCOON,ioos:station:TCOON:518:1,2013-03-03T07:00:00Z,29.5150,-94.5133,0.0,4.1,10.0,,'1111122,1111122,1111122' 
TCOON,ioos:station:TCOON:518:1,2013-03-03T08:00:00Z,29.5150,-94.5133,0.0,2.6,360.0,,'1111122,1111122,1111122' 
TCOON,ioos:station:TCOON:518:1,2013-03-03T09:00:00Z,29.5150,-94.5133,0.0,1.5,20.0,,'1111122,1111122,1111122' 
TCOON,ioos:station:TCOON:518:1,2013-03-03T10:00:00Z,29.5150,-94.5133,0.0,1.0,30.0,,'1111122,1111122,1111122' 
TCOON,ioos:station:TCOON:518:1,2013-03-03T11:00:00Z,29.5150,-94.5133,0.0,2.1,50.0,,'1111122,1111122,1111122' 
TCOON,ioos:station:TCOON:518:1,2013-03-03T12:00:00Z,29.5150,-94.5133,0.0,2.1,60.0,,'1111122,1111122,1111122' 
TCOON,ioos:station:TCOON:518:1,2013-03-03T13:00:00Z,29.5150,-94.5133,0.0,2.1,60.0,,'1111122,1111122,1111122' 
TCOON,ioos:station:TCOON:518:1,2013-03-03T14:00:00Z,29.5150,-94.5133,0.0,1.5,30.0,,'1111122,1111122,1111122' 
TCOON,ioos:station:TCOON:518:1,2013-03-03T15:00:00Z,29.5150,-94.5133,0.0,2.6,100.0,,'1111122,1111122,1111122' 
TCOON,ioos:station:TCOON:518:1,2013-03-03T16:00:00Z,29.5150,-94.5133,0.0,3.1,130.0,,'1111122,1111122,1111122' 
TCOON,ioos:station:TCOON:518:1,2013-03-03T17:00:00Z,29.5150,-94.5133,0.0,3.6,140.0,,'1111122,1111122,1111122' 
TCOON,ioos:station:TCOON:518:1,2013-03-03T18:00:00Z,29.5150,-94.5133,0.0,3.6,150.0,,'1111122,1111122,1111122' 
TCOON,ioos:station:TCOON:518:1,2013-03-03T19:00:00Z,29.5150,-94.5133,0.0,4.6,150.0,,'1111122,1111122,1111122' 
TCOON,ioos:station:TCOON:518:1,2013-03-03T20:00:00Z,29.5150,-94.5133,0.0,3.1,170.0,,'1111122,1111122,1111122' 
TCOON,ioos:station:TCOON:518:1,2013-03-03T21:00:00Z,29.5150,-94.5133,0.0,3.6,180.0,,'1111122,1111122,1111122' 
TCOON,ioos:station:TCOON:518:1,2013-03-03T22:00:00Z,29.5150,-94.5133,0.0,3.6,180.0,,'1111122,1111122,1111122' 
TCOON,ioos:station:TCOON:518:1,2013-03-03T23:00:00Z,29.5150,-94.5133,0.0,3.6,180.0,,'1111122,1111122,1111122' 
TCOON,ioos:station:TCOON:518:1,2013-03-04T00:00:00Z,29.5150,-94.5133,0.0,5.1,180.0,,'1111122,1111122,1111122' 
TCOON,ioos:station:TCOON:518:1,2013-03-04T01:00:00Z,29.5150,-94.5133,0.0,5.1,180.0,,'1111122,1111122,1111122' 
TCOON,ioos:station:TCOON:518:1,2013-03-04T02:00:00Z,29.5150,-94.5133,0.0,4.1,190.0,,'1111122,1111122,1111122' 
TCOON,ioos:station:TCOON:518:1,2013-03-04T03:00:00Z,29.5150,-94.5133,0.0,5.1,180.0,,'1111122,1111122,1111122' 
TCOON,ioos:station:TCOON:518:1,2013-03-04T04:00:00Z,29.5150,-94.5133,0.0,4.6,180.0,,'1111122,1111122,1111122' 
TCOON,ioos:station:TCOON:518:1,2013-03-04T05:00:00Z,29.5150,-94.5133,0.0,5.1,180.0,,'1111122,1111122,1111122' 
TCOON,ioos:station:TCOON:518:1,2013-03-04T06:00:00Z,29.5150,-94.5133,0.0,5.1,180.0,,'1111122,1111122,1111122' 
TCOON,ioos:station:TCOON:518:1,2013-03-04T07:00:00Z,29.5150,-94.5133,0.0,5.1,180.0,,'1111122,1111122,1111122' 
TCOON,ioos:station:TCOON:518:1,2013-03-04T08:00:00Z,29.5150,-94.5133,0.0,5.1,180.0,,'1111122,1111122,1111122' 
TCOON,ioos:station:TCOON:518:1,2013-03-04T09:00:00Z,29.5150,-94.5133,0.0,4.6,180.0,,'1111122,1111122,1111122' 
TCOON,ioos:station:TCOON:518:1,2013-03-04T10:00:00Z,29.5150,-94.5133,0.0,4.1,180.0,,'1111122,1111122,1111122' 
TCOON,ioos:station:TCOON:518:1,2013-03-04T11:00:00Z,29.5150,-94.5133,0.0,4.6,190.0,,'1111122,1111122,1111122' 
TCOON,ioos:station:TCOON:518:1,2013-03-04T12:00:00Z,29.5150,-94.5133,0.0,5.7,190.0,,'1111122,1111122,1111122' 
TCOON,ioos:station:TCOON:518:1,2013-03-04T13:00:00Z,29.5150,-94.5133,0.0,6.2,190.0,,'1111122,1111122,1111122' 
TCOON,ioos:station:TCOON:518:1,2013-03-04T14:00:00Z,29.5150,-94.5133,0.0,4.6,190.0,,'1111122,1111122,1111122' 
TCOON,ioos:station:TCOON:518:1,2013-03-04T15:00:00Z,29.5150,-94.5133,0.0,4.6,190.0,,'1111122,1111122,1111122' 
TCOON,ioos:station:TCOON:518:1,2013-03-04T16:00:00Z,29.5150,-94.5133,0.0,4.6,190.0,,'1111122,1111122,1111122' 
TCOON,ioos:station:TCOON:518:1,2013-03-04T17:00:00Z,29.5150,-94.5133,0.0,4.1,200.0,,'1111122,1111122,1111122' 
TCOON,ioos:station:TCOON:518:1,2013-03-04T18:00:00Z,29.5150,-94.5133,0.0,4.6,200.0,,'1111122,1111122,1111122' 
TCOON,ioos:station:TCOON:518:1,2013-03-04T19:00:00Z,29.5150,-94.5133,0.0,3.6,190.0,,'1111122,1111122,1111122' 
TCOON,ioos:station:TCOON:518:1,2013-03-04T20:00:00Z,29.5150,-94.5133,0.0,3.6,190.0,,'1111122,1111122,1111122' 
TCOON,ioos:station:TCOON:518:1,2013-03-04T21:00:00Z,29.5150,-94.5133,0.0,4.6,170.0,,'1111122,1111122,1111122' 
TCOON,ioos:station:TCOON:518:1,2013-03-04T22:00:00Z,29.5150,-94.5133,0.0,4.1,170.0,,'1111122,1111122,1111122' 
TCOON,ioos:station:TCOON:518:1,2013-03-04T23:00:00Z,29.5150,-94.5133,0.0,3.1,180.0,,'1111122,1111122,1111122' 
TCOON,ioos:station:TCOON:518:1,2013-03-05T00:00:00Z,29.5150,-94.5133,0.0,4.1,180.0,,'1111122,1111122,1111122' 
TCOON,ioos:station:TCOON:518:1,2013-03-05T01:00:00Z,29.5150,-94.5133,0.0,4.6,180.0,,'1111122,1111122,1111122' 
TCOON,ioos:station:TCOON:518:1,2013-03-05T02:00:00Z,29.5150,-94.5133,0.0,4.1,180.0,,'1111122,1111122,1111122' 
TCOON,ioos:station:TCOON:518:1,2013-03-05T03:00:00Z,29.5150,-94.5133,0.0,4.6,190.0,,'1111122,1111122,1111122' 
TCOON,ioos:station:TCOON:518:1,2013-03-05T04:00:00Z,29.5150,-94.5133,0.0,5.1,190.0,,'1111122,1111122,1111122' 
TCOON,ioos:station:TCOON:518:1,2013-03-05T05:00:00Z,29.5150,-94.5133,0.0,5.1,200.0,,'1111122,1111122,1111122' 
TCOON,ioos:station:TCOON:518:1,2013-03-05T06:00:00Z,29.5150,-94.5133,0.0,3.1,210.0,,'1111122,1111122,1111122' 
TCOON,ioos:station:TCOON:518:1,2013-03-05T07:00:00Z,29.5150,-94.5133,0.0,2.6,220.0,,'1111122,1111122,1111122' 
TCOON,ioos:station:TCOON:518:1,2013-03-05T08:00:00Z,29.5150,-94.5133,0.0,2.6,220.0,,'1111122,1111122,1111122' 
TCOON,ioos:station:TCOON:518:1,2013-03-05T09:00:00Z,29.5150,-94.5133,0.0,1.5,210.0,,'1111122,1111122,1111122' 
TCOON,ioos:station:TCOON:518:1,2013-03-05T10:00:00Z,29.5150,-94.5133,0.0,2.1,220.0,,'1111122,1111122,1111122' 
TCOON,ioos:station:TCOON:518:1,2013-03-05T11:00:00Z,29.5150,-94.5133,0.0,4.1,230.0,,'1111122,1111122,1111122' 
TCOON,ioos:station:TCOON:518:1,2013-03-05T12:00:00Z,29.5150,-94.5133,0.0,4.6,290.0,,'1111122,1111122,1111122' 
TCOON,ioos:station:TCOON:518:1,2013-03-05T13:00:00Z,29.5150,-94.5133,0.0,3.1,270.0,,'1111122,1111122,1111122' 
TCOON,ioos:station:TCOON:518:1,2013-03-05T14:00:00Z,29.5150,-94.5133,0.0,3.1,250.0,,'1111122,1111122,1111122' 
TCOON,ioos:station:TCOON:518:1,2013-03-05T15:00:00Z,29.5150,-94.5133,0.0,10.3,320.0,,'1111122,1111122,1111122' 
TCOON,ioos:station:TCOON:518:1,2013-03-05T16:00:00Z,29.5150,-94.5133,0.0,10.8,340.0,,'1111122,1111122,1111122' 
TCOON,ioos:station:TCOON:518:1,2013-03-05T17:00:00Z,29.5150,-94.5133,0.0,8.9,5.0,11.0,'11111222,11111222,11111222' 
TCOON,ioos:station:TCOON:518:1,2013-03-05T18:00:00Z,29.5150,-94.5133,0.0,8.2,360.0,,'1111122,1111122,1111122' 
TCOON,ioos:station:TCOON:518:1,2013-03-05T19:00:00Z,29.5150,-94.5133,0.0,7.7,350.0,,'1111122,1111122,1111122' 
TCOON,ioos:station:TCOON:518:1,2013-03-05T20:00:00Z,29.5150,-94.5133,0.0,8.7,340.0,,'1111122,1111122,1111122' 
TCOON,ioos:station:TCOON:518:1,2013-03-05T21:00:00Z,29.5150,-94.5133,0.0,8.2,360.0,,'1111122,1111122,1111122' 
TCOON,ioos:station:TCOON:518:1,2013-03-05T22:00:00Z,29.5150,-94.5133,0.0,8.2,350.0,,'1111122,1111122,1111122' 
TCOON,ioos:station:TCOON:518:1,2013-03-05T23:00:00Z,29.5150,-94.5133,0.0,8.7,360.0,,'1111122,1111122,1111122' 
TCOON,ioos:station:TCOON:518:1,2013-03-06T00:00:00Z,29.5150,-94.5133,0.0,7.7,360.0,,'1111122,1111122,1111122' 
TCOON,ioos:station:TCOON:518:1,2013-03-06T01:00:00Z,29.5150,-94.5133,0.0,6.2,330.0,,'1111122,1111122,1111122' 
TCOON,ioos:station:TCOON:518:1,2013-03-06T02:00:00Z,29.5150,-94.5133,0.0,6.7,330.0,,'1111122,1111122,1111122' 
TCOON,ioos:station:TCOON:518:1,2013-03-06T03:00:00Z,29.5150,-94.5133,0.0,6.7,340.0,,'1111122,1111122,1111122' 
TCOON,ioos:station:TCOON:518:1,2013-03-06T04:00:00Z,29.5150,-94.5133,0.0,6.7,340.0,,'1111122,1111122,1111122' 
TCOON,ioos:station:TCOON:518:1,2013-03-06T05:00:00Z,29.5150,-94.5133,0.0,7.7,350.0,,'1111122,1111122,1111122' 
TCOON,ioos:station:TCOON:518:1,2013-03-06T06:00:00Z,29.5150,-94.5133,0.0,6.7,350.0,,'1111122,1111122,1111122' 
TCOON,ioos:station:TCOON:518:1,2013-03-06T07:00:00Z,29.5150,-94.5133,0.0,6.7,360.0,,'1111122,1111122,1111122' 
TCOON,ioos:station:TCOON:518:1,2013-03-06T08:00:00Z,29.5150,-94.5133,0.0,5.7,10.0,,'1111122,1111122,1111122' 
TCOON,ioos:station:TCOON:518:1,2013-03-06T09:00:00Z,29.5150,-94.5133,0.0,6.2,360.0,,'1111122,1111122,1111122' 
TCOON,ioos:station:TCOON:518:1,2013-03-06T10:00:00Z,29.5150,-94.5133,0.0,6.2,360.0,,'1111122,1111122,1111122' 
TCOON,ioos:station:TCOON:518:1,2013-03-06T11:00:00Z,29.5150,-94.5133,0.0,7.2,10.0,,'1111122,1111122,1111122' 
TCOON,ioos:station:TCOON:518:1,2013-03-06T12:00:00Z,29.5150,-94.5133,0.0,5.7,10.0,,'1111122,1111122,1111122' 
TCOON,ioos:station:TCOON:518:1,2013-03-06T13:00:00Z,29.5150,-94.5133,0.0,4.1,20.0,,'1111122,1111122,1111122' 
TCOON,ioos:station:TCOON:518:1,2013-03-06T14:00:00Z,29.5150,-94.5133,0.0,6.2,20.0,,'1111122,1111122,1111122' 
TCOON,ioos:station:TCOON:518:1,2013-03-06T15:00:00Z,29.5150,-94.5133,0.0,7.7,30.0,,'1111122,1111122,1111122' 
TCOON,ioos:station:TCOON:518:1,2013-03-06T16:00:00Z,29.5150,-94.5133,0.0,5.7,50.0,,'1111122,1111122,1111122' 
TCOON,ioos:station:TCOON:518:1,2013-03-06T17:00:00Z,29.5150,-94.5133,0.0,2.1,30.0,,'1111122,1111122,1111122' 
TCOON,ioos:station:TCOON:518:1,2013-03-06T18:00:00Z,29.5150,-94.5133,0.0,1.0,312.0,2.0,'11111222,11111222,11111222' 
TCOON,ioos:station:TCOON:518:1,2013-03-06T19:00:00Z,29.5150,-94.5133,0.0,3.1,160.0,,'1111122,1111122,1111122' 
TCOON,ioos:station:TCOON:518:1,2013-03-06T20:00:00Z,29.5150,-94.5133,0.0,3.6,190.0,,'1111122,1111122,1111122' 
TCOON,ioos:station:TCOON:518:1,2013-03-06T21:00:00Z,29.5150,-94.5133,0.0,3.1,190.0,,'1111122,1111122,1111122' 
TCOON,ioos:station:TCOON:518:1,2013-03-06T22:00:00Z,29.5150,-94.5133,0.0,3.1,210.0,,'1111122,1111122,1111122' 
TCOON,ioos:station:TCOON:518:1,2013-03-06T23:00:00Z,29.5150,-94.5133,0.0,2.6,220.0,,'1111122,1111122,1111122' 
TCOON,ioos:station:TCOON:518:1,2013-03-07T00:00:00Z,29.5150,-94.5133,0.0,2.1,200.0,,'1111122,1111122,1111122' 
TCOON,ioos:station:TCOON:518:1,2013-03-07T01:00:00Z,29.5150,-94.5133,0.0,1.5,190.0,,'1111122,1111122,1111122' 
TCOON,ioos:station:TCOON:518:1,2013-03-07T02:00:00Z,29.5150,-94.5133,0.0,2.1,180.0,,'1111122,1111122,1111122' 
TCOON,ioos:station:TCOON:518:1,2013-03-07T03:00:00Z,29.5150,-94.5133,0.0,2.6,180.0,,'1111122,1111122,1111122' 
TCOON,ioos:station:TCOON:518:1,2013-03-07T04:00:00Z,29.5150,-94.5133,0.0,2.1,230.0,,'1111122,1111122,1111122' 
TCOON,ioos:station:TCOON:518:1,2013-03-07T05:00:00Z,29.5150,-94.5133,0.0,2.6,170.0,,'1111122,1111122,1111122' 
TCOON,ioos:station:TCOON:518:1,2013-03-07T06:00:00Z,29.5150,-94.5133,0.0,1.5,210.0,,'1111122,1111122,1111122' 
TCOON,ioos:station:TCOON:518:1,2013-03-07T07:00:00Z,29.5150,-94.5133,0.0,1.5,250.0,,'1111122,1111122,1111122' 
TCOON,ioos:station:TCOON:518:1,2013-03-07T08:00:00Z,29.5150,-94.5133,0.0,0.3,245.0,1.0,'11111222,11111222,11111222' 
TCOON,ioos:station:TCOON:518:1,2013-03-07T09:00:00Z,29.5150,-94.5133,0.0,2.1,20.0,,'1111122,1111122,1111122' 
TCOON,ioos:station:TCOON:518:1,2013-03-07T10:00:00Z,29.5150,-94.5133,0.0,2.1,10.0,,'1111122,1111122,1111122' 
TCOON,ioos:station:TCOON:518:1,2013-03-07T11:00:00Z,29.5150,-94.5133,0.0,2.6,40.0,,'1111122,1111122,1111122' 
TCOON,ioos:station:TCOON:518:1,2013-03-07T12:00:00Z,29.5150,-94.5133,0.0,4.6,50.0,,'1111122,1111122,1111122' 
TCOON,ioos:station:TCOON:518:1,2013-03-07T13:00:00Z,29.5150,-94.5133,0.0,4.1,50.0,,'1111122,1111122,1111122' 
TCOON,ioos:station:TCOON:518:1,2013-03-07T14:00:00Z,29.5150,-94.5133,0.0,4.1,60.0,,'1111122,1111122,1111122' 
TCOON,ioos:station:TCOON:518:1,2013-03-07T15:00:00Z,29.5150,-94.5133,0.0,4.1,90.0,,'1111122,1111122,1111122' 
TCOON,ioos:station:TCOON:518:1,2013-03-07T16:00:00Z,29.5150,-94.5133,0.0,5.7,110.0,,'1111122,1111122,1111122' 
TCOON,ioos:station:TCOON:518:1,2013-03-07T17:00:00Z,29.5150,-94.5133,0.0,6.7,100.0,,'1111122,1111122,1111122' 
TCOON,ioos:station:TCOON:518:1,2013-03-07T18:00:00Z,29.5150,-94.5133,0.0,8.2,110.0,,'1111122,1111122,1111122' 
TCOON,ioos:station:TCOON:518:1,2013-03-07T19:00:00Z,29.5150,-94.5133,0.0,7.2,120.0,,'1111122,1111122,1111122' 
TCOON,ioos:station:TCOON:518:1,2013-03-07T20:00:00Z,29.5150,-94.5133,0.0,7.7,120.0,,'1111122,1111122,1111122' 
TCOON,ioos:station:TCOON:518:1,2013-03-07T21:00:00Z,29.5150,-94.5133,0.0,7.7,130.0,,'1111122,1111122,1111122' 
TCOON,ioos:station:TCOON:518:1,2013-03-07T22:00:00Z,29.5150,-94.5133,0.0,7.7,110.0,,'1111122,1111122,1111122' 
TCOON,ioos:station:TCOON:518:1,2013-03-07T23:00:00Z,29.5150,-94.5133,0.0,7.7,130.0,,'1111122,1111122,1111122' 
TCOON,ioos:station:TCOON:518:1,2013-03-08T00:00:00Z,29.5150,-94.5133,0.0,7.7,130.0,,'1111122,1111122,1111122' 
TCOON,ioos:station:TCOON:518:1,2013-03-08T01:00:00Z,29.5150,-94.5133,0.0,7.2,120.0,,'1111122,1111122,1111122' 
TCOON,ioos:station:TCOON:518:1,2013-03-08T02:00:00Z,29.5150,-94.5133,0.0,6.7,120.0,,'1111122,1111122,1111122' 
TCOON,ioos:station:TCOON:518:1,2013-03-08T03:00:00Z,29.5150,-94.5133,0.0,6.2,130.0,,'1111122,1111122,1111122' 
TCOON,ioos:station:TCOON:518:1,2013-03-08T04:00:00Z,29.5150,-94.5133,0.0,6.2,130.0,,'1111122,1111122,1111122' 
TCOON,ioos:station:TCOON:518:1,2013-03-08T05:00:00Z,29.5150,-94.5133,0.0,6.2,130.0,,'1111122,1111122,1111122' 
TCOON,ioos:station:TCOON:518:1,2013-03-08T06:00:00Z,29.5150,-94.5133,0.0,5.7,130.0,,'1111122,1111122,1111122' 
TCOON,ioos:station:TCOON:518:1,2013-03-08T07:00:00Z,29.5150,-94.5133,0.0,3.6,130.0,,'1111122,1111122,1111122' 
TCOON,ioos:station:TCOON:518:1,2013-03-08T08:00:00Z,29.5150,-94.5133,0.0,5.1,110.0,,'1111122,1111122,1111122' 
TCOON,ioos:station:TCOON:518:1,2013-03-08T09:00:00Z,29.5150,-94.5133,0.0,5.1,110.0,,'1111122,1111122,1111122' 
TCOON,ioos:station:TCOON:518:1,2013-03-08T10:00:00Z,29.5150,-94.5133,0.0,5.7,110.0,,'1111122,1111122,1111122' 
TCOON,ioos:station:TCOON:518:1,2013-03-08T11:00:00Z,29.5150,-94.5133,0.0,5.7,110.0,,'1111122,1111122,1111122' 
TCOON,ioos:station:TCOON:518:1,2013-03-08T12:00:00Z,29.5150,-94.5133,0.0,5.7,110.0,,'1111122,1111122,1111122' 
TCOON,ioos:station:TCOON:518:1,2013-03-08T13:00:00Z,29.5150,-94.5133,0.0,5.1,100.0,,'1111122,1111122,1111122' 
TCOON,ioos:station:TCOON:518:1,2013-03-08T14:00:00Z,29.5150,-94.5133,0.0,6.2,110.0,,'1111122,1111122,1111122' 
TCOON,ioos:station:TCOON:518:1,2013-03-08T15:00:00Z,29.5150,-94.5133,0.0,7.7,100.0,,'1111122,1111122,1111122' 
TCOON,ioos:station:TCOON:518:1,2013-03-08T16:00:00Z,29.5150,-94.5133,0.0,8.2,100.0,,'1111122,1111122,1111122' 
TCOON,ioos:station:TCOON:518:1,2013-03-08T17:00:00Z,29.5150,-94.5133,0.0,8.2,100.0,,'1111122,1111122,1111122' 
TCOON,ioos:station:TCOON:518:1,2013-03-08T18:00:00Z,29.5150,-94.5133,0.0,8.7,100.0,,'1111122,1111122,1111122' 
TCOON,ioos:station:TCOON:518:1,2013-03-08T19:00:00Z,29.5150,-94.5133,0.0,8.2,100.0,,'1111122,1111122,1111122' 
TCOON,ioos:station:TCOON:518:1,2013-03-08T20:00:00Z,29.5150,-94.5133,0.0,7.7,100.0,,'1111122,1111122,1111122' 
TCOON,ioos:station:TCOON:518:1,2013-03-08T21:00:00Z,29.5150,-94.5133,0.0,10.8,100.0,,'1111122,1111122,1111122' 
TCOON,ioos:station:TCOON:518:1,2013-03-08T22:00:00Z,29.5150,-94.5133,0.0,9.3,100.0,,'1111122,1111122,1111122' 
TCOON,ioos:station:TCOON:518:1,2013-03-08T23:00:00Z,29.5150,-94.5133,0.0,7.7,100.0,,'1111122,1111122,1111122' 
TCOON,ioos:station:TCOON:518:1,2013-03-09T00:00:00Z,29.5150,-94.5133,0.0,7.2,110.0,,'1111122,1111122,1111122' 
TCOON,ioos:station:TCOON:518:1,2013-03-09T01:00:00Z,29.5150,-94.5133,0.0,6.2,120.0,,'1111122,1111122,1111122' 
TCOON,ioos:station:TCOON:518:1,2013-03-09T02:00:00Z,29.5150,-94.5133,0.0,8.2,120.0,,'1111122,1111122,1111122' 
TCOON,ioos:station:TCOON:518:1,2013-03-09T03:00:00Z,29.5150,-94.5133,0.0,10.3,120.0,,'1111122,1111122,1111122' 
TCOON,ioos:station:TCOON:518:1,2013-03-09T04:00:00Z,29.5150,-94.5133,0.0,9.8,120.0,,'1111122,1111122,1111122' 
TCOON,ioos:station:TCOON:518:1,2013-03-09T05:00:00Z,29.5150,-94.5133,0.0,8.7,120.0,,'1111122,1111122,1111122' 
TCOON,ioos:station:TCOON:518:1,2013-03-09T06:00:00Z,29.5150,-94.5133,0.0,7.2,130.0,,'1111122,1111122,1111122' 
TCOON,ioos:station:TCOON:518:1,2013-03-09T07:00:00Z,29.5150,-94.5133,0.0,4.6,130.0,,'1111122,1111122,1111122' 
TCOON,ioos:station:TCOON:518:1,2013-03-09T08:00:00Z,29.5150,-94.5133,0.0,5.1,120.0,,'1111122,1111122,1111122' 
TCOON,ioos:station:TCOON:518:1,2013-03-09T09:00:00Z,29.5150,-94.5133,0.0,5.7,130.0,,'1111122,1111122,1111122' 
TCOON,ioos:station:TCOON:518:1,2013-03-09T10:00:00Z,29.5150,-94.5133,0.0,6.7,130.0,,'1111122,1111122,1111122' 
TCOON,ioos:station:TCOON:518:1,2013-03-09T11:00:00Z,29.5150,-94.5133,0.0,5.7,120.0,,'1111122,1111122,1111122' 
TCOON,ioos:station:TCOON:518:1,2013-03-09T12:00:00Z,29.5150,-94.5133,0.0,5.7,140.0,,'1111122,1111122,1111122' 
TCOON,ioos:station:TCOON:518:1,2013-03-09T13:00:00Z,29.5150,-94.5133,0.0,5.7,130.0,,'1111122,1111122,1111122' 
TCOON,ioos:station:TCOON:518:1,2013-03-09T14:00:00Z,29.5150,-94.5133,0.0,7.2,130.0,,'1111122,1111122,1111122' 
TCOON,ioos:station:TCOON:518:1,2013-03-09T15:00:00Z,29.5150,-94.5133,0.0,7.7,130.0,,'1111122,1111122,1111122' 
TCOON,ioos:station:TCOON:518:1,2013-03-09T16:00:00Z,29.5150,-94.5133,0.0,3.1,140.0,,'1111122,1111122,1111122' 
TCOON,ioos:station:TCOON:518:1,2013-03-09T17:00:00Z,29.5150,-94.5133,0.0,5.7,130.0,,'1111122,1111122,1111122' 
TCOON,ioos:station:TCOON:518:1,2013-03-09T18:00:00Z,29.5150,-94.5133,0.0,3.6,140.0,,'1111122,1111122,1111122' 
TCOON,ioos:station:TCOON:518:1,2013-03-09T19:00:00Z,29.5150,-94.5133,0.0,5.7,140.0,,'1111122,1111122,1111122' 
TCOON,ioos:station:TCOON:518:1,2013-03-09T20:00:00Z,29.5150,-94.5133,0.0,7.2,140.0,,'1111122,1111122,1111122' 